Torna al catalogo

COSMOS 1348 DEB

LostHEO
NORAD 35515·DEBRIS·🇷🇺 Russia

Lanciato Apr 7, 1982 da Plesetsk Cosmodrome

Loading…

Prossimi Passaggi (prossime 24 ore)

TLE

ObsoletoSource: Space-Track

Epoca: Jun 6, 2014, 11:22 UTC

1 35515U 82029N   14157.47362367 -.00000060  00000-0  00000+0 0  9992
2 35515  69.7663 242.9338 5130104 118.4337 261.0657  2.05421639 55997

Traccia COSMOS 1348 DEB in tempo reale con AllMySat

Download on the App Store